Theta_e
321 321 321 322 322 322 323 323 322 322 322 322 323 323 323 324 324 320 310 316 318 330 324 315 314 314 314 312 313 312 302 300 301 301 302 307 304 309 310 307 309 310 310 313 314
320 321 321 321 321 322 323 323 323 323 322 322 322 322 323 323 317 312 323 326 333 327 315 312 310 311 309 309 311 307 302 301 306 305 303 305 305 306 306 306 306 309 312 313 313
320 320 320 321 321 322 323 323 323 323 323 322 322 322 322 322 311 308 326 329 333 324 315 314 312 310 306 309 308 307 301 305 306 306 306 304 304 307 304 303 306 306 309 312 313
320 320 320 320 321 322 323 323 323 324 323 323 322 322 322 318 300 310 328 331 332 318 314 311 309 306 304 303 307 302 305 305 306 307 305 303 306 304 305 305 309 310 311 311 311
321 320 320 320 320 321 323 323 324 324 323 323 322 322 318 306 306 323 329 331 319 313 311 309 306 306 302 304 305 303 304 305 306 306 306 306 303 304 304 308 310 310 310 309 310
321 320 320 320 321 321 322 323 324 324 323 322 322 320 312 302 313 323 325 321 314 312 310 310 307 308 304 303 302 304 303 303 304 304 304 302 303 304 305 308 307 308 308 309 309
321 320 320 320 321 322 322 323 323 322 322 322 322 318 307 308 315 321 320 316 314 312 309 311 310 306 306 302 306 303 298 301 302 304 303 303 299 300 306 307 306 306 307 308 309
320 320 319 320 321 321 322 323 322 321 321 320 322 315 303 308 315 314 314 311 313 313 311 310 310 307 304 306 302 299 299 295 302 301 301 301 295 303 306 304 303 305 307 308 309
320 319 319 320 320 321 322 321 319 321 321 320 316 310 303 311 307 310 311 307 310 309 309 308 309 304 304 298 296 298 293 295 298 304 300 299 296 302 305 304 303 304 306 307 308
320 319 320 320 320 321 321 317 319 319 320 319 311 302 305 302 307 307 309 309 305 306 304 304 303 299 299 296 290 295 296 297 296 301 301 298 298 302 304 304 304 305 305 306 307
320 320 320 321 321 322 320 315 313 310 309 306 307 302 308 306 308 305 306 305 306 303 297 301 296 293 297 299 299 297 295 294 298 301 299 298 297 299 302 303 303 304 305 305 305
321 321 321 321 321 322 316 312 307 306 305 314 311 309 310 306 303 303 306 301 300 296 299 296 293 299 301 300 296 295 294 294 298 301 298 297 295 298 301 303 304 303 303 303 304
321 320 321 321 321 320 313 309 311 309 305 308 306 304 304 305 304 306 304 302 299 297 296 295 299 301 297 297 295 295 294 295 294 297 297 295 294 298 302 305 302 302 302 303 302
320 320 320 320 317 320 313 311 312 310 300 302 300 300 301 303 299 302 304 302 299 297 299 297 298 295 295 294 295 291 297 295 293 291 288 295 286 295 300 301 299 299 300 299 299
318 319 320 319 321 317 312 312 311 307 288 298 297 305 302 297 299 298 302 300 296 297 296 295 294 293 292 294 296 293 296 293 292 290 290 291 288 295 300 296 296 297 297 297 297
314 316 318 317 318 314 314 313 311 298 287 297 297 297 296 297 296 299 299 301 300 295 296 295 298 295 295 296 296 296 293 294 294 291 286 292 291 293 295 295 294 295 295 296 296
309 313 317 321 315 316 318 316 297 290 301 297 295 295 296 295 295 296 296 295 295 292 293 297 297 298 296 293 295 293 291 287 286 285 286 292 291 293 297 295 296 294 295 295 296
307 311 315 319 318 319 318 304 288 294 297 303 301 300 298 298 298 295 296 295 298 297 295 290 288 294 295 294 294 294 293 286 280 282 286 293 287 293 297 295 296 296 295 294 293
308 312 312 317 318 318 308 292 291 295 299 298 299 295 296 299 298 298 298 297 299 298 291 290 290 299 296 298 295 292 289 295 288 288 284 288 292 295 295 295 295 294 293 290 290
306 306 307 314 318 313 300 293 296 301 301 300 293 295 291 295 294 294 294 298 296 296 299 294 288 296 295 294 294 290 292 286 286 279 279 285 288 288 293 293 293 290 289 289 290
305 297 306 314 316 303 291 293 296 300 300 298 295 294 294 292 294 292 293 297 298 296 296 294 291 290 294 290 289 288 286 287 287 286 280 280 285 294 292 290 289 289 289 288 288
301 291 308 314 297 297 292 294 296 295 299 297 297 295 292 292 291 292 291 293 299 298 293 296 290 286 288 295 296 295 291 290 283 282 284 284 285 296 291 289 289 287 287 287 287
294 296 307 308 290 291 294 293 295 294 294 294 294 296 296 292 288 291 292 296 297 296 293 294 287 282 284 288 292 289 290 289 288 285 282 280 283 294 289 288 286 286 285 286 286
294 287 296 298 299 293 291 291 291 296 294 295 293 295 293 290 292 288 289 294 295 294 293 295 287 284 280 284 287 284 287 288 286 281 281 281 283 287 290 289 285 284 283 283 284
293 289 293 287 290 293 292 290 288 288 293 294 291 290 289 286 287 287 290 291 291 289 290 291 282 285 286 286 285 284 283 284 282 283 279 282 282 286 288 287 284 284 284 282 282
289 288 290 290 292 291 290 288 287 289 289 288 288 290 291 287 288 285 286 286 285 287 286 285 281 282 278 283 283 280 282 283 282 282 282 283 282 288 286 284 283 282 282 281 282
293 293 290 287 288 288 288 288 288 290 288 289 288 287 285 288 289 288 288 288 288 285 283 282 281 278 274 279 278 273 277 279 281 283 282 277 281 282 280 280 280 280 281 281 282
Wind_Speed
6 7 7 8 8 8 9 9 9 9 9 10 11 11 10 10 11 6 9 2 2 14 6 8 7 6 5 4 3 2 6 8 9 7 3 4 6 7 3 10 8 8 12 7 6
6 6 7 7 8 8 8 9 10 10 10 11 12 12 13 12 8 12 2 5 10 12 9 11 8 7 6 4 4 7 8 10 5 8 8 10 9 13 11 12 15 15 16 13 7
5 6 7 7 7 8 9 9 9 10 11 11 11 12 12 12 9 1 3 9 13 11 6 8 5 7 8 5 6 6 9 12 11 12 13 13 14 15 14 16 18 15 9 7 11
5 6 7 8 9 9 9 10 11 11 11 11 10 11 12 5 7 3 1 8 11 10 8 7 7 6 7 9 8 10 14 16 15 8 7 15 16 16 15 21 21 21 19 17 15
5 6 7 8 9 11 11 12 13 12 12 11 10 8 6 7 10 5 6 9 12 9 11 10 10 9 10 8 8 15 15 15 14 14 15 17 20 20 19 21 23 21 18 17 15
5 6 7 8 10 11 13 13 14 13 13 11 8 6 6 12 3 4 5 8 7 12 11 11 5 8 12 12 12 12 11 17 19 19 17 17 21 16 20 13 13 13 14 14 15
5 6 7 9 11 12 14 15 15 15 11 9 6 5 7 12 3 4 5 3 3 8 9 10 5 7 6 9 7 9 13 17 22 21 14 7 15 14 19 13 15 15 15 15 16
6 6 7 8 10 13 14 15 15 10 7 3 7 5 8 1 2 4 4 2 2 4 5 3 5 8 7 6 7 11 13 14 7 3 1 8 15 16 10 11 13 18 21 20 22
5 5 7 9 10 13 14 15 4 4 4 6 5 5 6 4 2 2 3 3 4 3 2 3 5 7 7 10 13 13 14 18 16 12 1 11 12 12 20 20 22 24 21 18 18
6 5 6 8 10 13 16 6 5 3 5 5 2 5 6 1 3 3 1 6 3 7 5 5 6 9 10 12 12 16 20 21 15 14 15 17 23 20 17 22 24 23 20 16 12
8 7 7 8 10 11 11 4 5 5 5 7 8 8 7 4 3 3 1 5 5 6 6 9 9 11 16 16 21 22 22 24 21 20 22 23 23 21 23 24 24 18 12 9 8
8 7 8 7 8 12 7 4 3 3 10 12 16 11 7 3 4 4 5 7 5 8 7 4 12 15 15 16 14 17 22 23 19 16 13 20 23 25 22 17 10 9 7 6 12
6 5 7 7 6 6 3 3 0 2 7 5 1 4 2 4 6 6 8 3 8 12 11 17 15 14 10 13 16 20 21 23 25 18 19 18 18 7 8 10 14 15 16 15 20
6 5 1 3 3 2 1 3 1 3 7 5 4 3 3 2 3 2 2 4 3 8 9 11 5 5 11 14 16 20 15 13 14 11 9 7 9 17 15 3 15 18 17 19 19
5 5 3 3 3 2 4 3 2 4 8 2 4 3 2 3 4 3 2 4 7 5 4 2 0 1 7 12 9 12 6 11 10 12 15 13 9 4 4 10 13 15 16 16 16
4 1 5 2 1 3 4 3 3 4 8 2 2 4 4 4 3 5 4 4 1 4 8 14 2 6 8 4 6 6 10 14 15 7 9 14 16 5 5 7 16 12 13 14 15
3 1 2 1 1 6 3 3 5 7 1 5 3 3 2 4 5 7 7 9 7 7 10 6 11 8 4 6 6 6 7 8 6 7 7 7 7 11 5 9 13 12 11 12 12
3 1 2 2 4 5 2 4 10 3 11 4 3 5 4 0 5 4 4 8 8 9 9 6 9 10 12 8 7 9 11 6 6 10 16 13 8 6 10 14 12 12 11 10 12
1 2 2 3 5 2 3 7 5 7 10 5 3 9 12 8 7 5 10 13 11 11 9 4 8 3 7 8 2 3 8 11 6 3 6 10 15 9 15 13 11 8 9 10 10
2 1 3 3 5 1 5 13 10 4 3 6 14 9 11 9 6 3 4 4 1 3 8 3 12 5 5 2 8 6 5 4 3 7 15 14 12 10 13 8 6 8 9 11 13
4 2 2 6 4 3 9 9 13 12 11 7 12 18 14 13 10 5 4 4 8 5 5 5 5 14 9 8 12 5 5 4 2 5 7 10 9 6 9 7 7 8 8 9 10
3 5 6 7 7 5 11 5 5 9 3 10 5 13 16 13 12 12 11 11 7 3 3 3 2 6 14 15 13 8 12 13 7 6 9 14 17 5 11 10 6 3 5 8 8
4 1 2 4 9 11 9 10 14 8 9 8 9 9 8 10 7 11 14 6 4 1 3 5 2 5 9 2 3 4 7 4 8 2 15 16 12 9 12 10 7 4 4 5 6
4 5 4 4 8 11 17 18 16 8 13 13 8 7 9 11 10 6 6 4 4 4 6 4 4 10 13 17 12 9 12 15 15 6 13 15 20 19 19 17 8 1 3 6 7
3 5 2 7 10 15 12 4 14 14 11 7 7 16 12 8 10 13 13 2 3 3 1 4 9 11 16 19 19 17 17 23 22 21 20 21 22 22 20 17 5 4 5 6 8
4 4 3 1 8 18 17 13 17 11 7 10 12 4 4 7 6 3 0 4 7 3 2 1 9 5 12 13 16 18 23 22 21 22 24 24 27 23 6 3 6 8 10 11 12
2 1 3 4 8 9 13 17 11 11 5 6 4 4 5 7 3 3 3 4 4 5 5 4 5 6 16 13 13 11 18 21 25 24 24 23 12 5 2 4 7 11 12 15 14
Wind_Direction
41 29 21 21 16 15 12 4 359 352 342 335 332 330 330 329 300 228 255 220 147 159 203 161 195 198 214 215 239 272 254 265 269 264 272 152 265 145 296 275 243 229 273 17 97
19 15 12 4 360 356 353 348 344 338 335 330 329 329 328 331 277 266 142 121 137 165 178 189 201 200 224 228 213 232 244 275 291 284 275 299 272 285 276 264 265 252 235 241 207
353 354 350 348 342 337 335 333 329 326 322 321 322 324 323 315 281 92 119 146 160 186 231 230 275 222 254 260 220 219 250 274 292 278 292 285 284 275 259 267 265 276 286 278 237
329 329 329 328 325 324 323 320 317 313 311 309 311 317 320 263 297 79 148 154 163 191 189 190 205 220 250 236 246 262 247 270 285 297 278 269 282 278 263 265 280 287 292 291 280
309 311 314 316 316 317 317 316 314 310 303 300 299 309 283 238 254 90 116 140 165 193 207 210 225 239 257 273 286 246 270 275 280 276 265 281 270 268 271 276 276 281 280 272 261
297 306 309 308 309 311 313 315 313 308 301 293 275 293 248 261 69 102 126 159 191 202 214 220 233 261 288 273 255 312 293 285 279 274 265 264 272 279 269 276 277 281 277 270 263
282 295 306 311 311 313 315 317 315 310 300 287 224 224 253 259 34 108 151 186 220 229 233 233 281 236 331 263 309 289 296 294 279 264 253 264 268 244 268 258 275 280 279 278 282
277 290 300 308 312 313 316 319 314 309 313 247 185 209 257 55 76 180 182 137 203 206 259 320 226 265 258 304 255 273 274 280 312 74 171 207 279 295 3 333 298 289 287 285 287
263 282 303 310 313 313 317 318 292 13 93 144 199 245 260 148 183 61 244 238 152 165 93 145 203 239 220 248 272 243 269 279 294 295 326 217 288 308 315 298 291 283 286 293 294
253 264 286 304 314 317 321 297 193 210 207 242 267 235 198 29 116 116 99 166 159 152 149 192 213 231 231 245 252 280 285 294 278 293 278 275 279 294 299 292 277 281 295 303 309
257 269 287 304 312 323 325 245 229 201 209 285 312 287 307 67 174 109 138 161 146 201 213 194 220 220 245 245 259 281 286 284 284 291 290 290 297 301 292 280 287 288 302 315 35
249 266 290 300 317 320 289 338 49 7 292 262 259 270 287 330 285 147 182 200 203 227 199 186 240 252 271 275 292 283 280 283 285 290 296 294 293 288 285 275 301 331 348 42 96
241 262 285 305 310 285 3 58 40 237 260 272 229 269 315 249 253 267 197 222 228 249 224 255 280 315 285 264 268 265 274 286 295 308 297 289 279 227 315 300 67 68 79 90 71
190 201 282 274 274 85 177 137 204 293 272 160 171 135 172 235 187 354 283 280 232 282 272 265 327 277 273 264 270 280 306 310 305 307 296 25 289 303 271 14 93 78 72 65 56
165 184 191 201 11 241 79 108 84 236 283 87 127 79 147 244 118 121 174 175 258 263 268 288 54 285 268 270 278 284 336 307 296 277 286 272 246 251 294 143 104 78 75 68 64
124 205 157 114 229 82 125 141 238 228 245 156 144 177 192 196 172 133 195 229 1 235 215 258 227 265 248 305 240 315 284 276 255 272 259 256 229 288 114 122 107 78 66 65 58
83 344 186 291 68 140 165 222 233 228 48 168 179 187 263 182 185 207 182 187 231 258 252 218 245 198 227 258 193 242 278 315 274 208 256 78 325 253 34 87 113 109 82 67 61
22 86 135 332 131 161 185 232 236 232 234 118 191 193 246 163 225 212 247 254 216 259 276 263 276 183 169 219 290 276 260 244 286 293 299 304 261 239 80 109 103 97 85 62 47
202 121 219 193 156 176 198 230 222 227 239 239 228 260 254 216 248 220 239 274 291 200 227 222 247 199 202 244 254 102 216 252 246 277 268 250 262 141 128 126 114 91 69 51 46
97 240 221 148 158 157 226 237 234 258 233 263 242 265 264 192 209 221 306 83 214 247 271 319 290 261 65 129 222 245 354 208 140 241 255 259 247 264 203 145 86 52 42 27 15
131 201 96 154 164 218 229 229 249 266 262 249 252 258 264 274 271 215 247 251 244 238 220 308 254 272 281 217 267 209 234 210 352 238 249 261 251 113 89 82 58 34 24 15 8
169 192 146 172 181 212 236 227 257 237 237 260 288 266 266 271 265 244 248 252 33 13 243 203 171 266 255 278 282 265 269 252 242 225 237 264 259 139 108 94 73 45 0 360 3
182 212 180 205 209 215 230 239 235 208 214 221 234 231 239 245 253 248 256 86 54 43 5 19 248 284 294 20 36 265 348 321 324 234 254 271 272 65 130 115 66 15 346 323 327
164 180 178 256 258 230 222 232 223 217 239 232 247 266 246 243 236 250 248 110 53 65 59 86 251 239 259 284 330 280 284 278 275 252 288 272 285 289 289 312 23 200 318 338 314
209 217 181 201 216 224 232 244 232 217 219 233 245 239 235 241 250 249 262 281 135 57 135 267 261 256 262 277 293 294 284 269 267 270 263 279 284 283 291 317 343 292 307 317 326
189 189 201 280 228 211 213 224 221 209 191 212 235 187 225 224 229 347 222 207 264 107 196 171 266 299 270 268 272 274 265 264 265 264 260 264 267 272 337 328 305 325 331 318 314
129 218 275 154 192 201 215 224 231 228 179 257 289 262 239 270 349 27 320 300 265 235 228 235 257 267 267 289 312 278 256 258 262 265 269 271 304 68 145 312 325 326 322 313 312